(203466) = 2001 YR138

Discovered at Kitt Peak on 2001-12-18 by Spacewatch.

Orbit

Orbit type: Main Belt

Note: WebGL enabled browser required.

epoch2024-03-31.0
epoch JD2460400.5
perihelion date2022-08-26.14249
perihelion JD2459817.64249
argument of perihelion (°)106.43569
ascending node (°)291.52405
inclination (°)6.43696
eccentricity0.1063910
perihelion distance (AU)2.0793622
Tisserand w.r.t. Jupiter3.6
ΔV w.r.t. Earth (km/sec)9.2
semimajor axis (AU)2.3269261
mean anomaly (°)161.84241
mean daily motion (°/day)0.27767060
aphelion distance (AU)2.574
period (years)3.55
P-vector [x]0.78281821
P-vector [y]0.51954234
P-vector [z]0.34244912
Q-vector [x]-0.61344835
Q-vector [y]0.73660045
Q-vector [z]0.28478221
absolute magnitude16.25
phase slope0.15
uncertainty0
referenceMPEC 2024-F28
observations used737
oppositions15
arc length (days)8127
first opposition used2001
last opposition used2024
residual rms (arc-secs)0.68
perturbers coarse indicatorM-v
perturbers precise indicator003Ek
first observation date used2001-12-17.0
last observation date used2024-03-18.0
computer nameMPCLINUX
JD of orbit computation2456406.171305
perihelion JD uncertainty (days)1.2314E-04
argument of perihelion uncertainty (°)5.8345E-05
ascending node uncertainty (°)4.7446E-05
inclination uncertainty (°)4.6086E-06
eccentricity uncertainty 5.7191E-08
perihelion distance uncertainty (AU)1.4002E-07
Minimum Orbit Intersection Distances (in AU)
for orbit epoch: 2460400.5, reference: E2024-GD4
Mercury1.7576
Venus1.36712
Earth1.09813
Mars0.58826
Jupiter2.77829
Saturn6.83173
Uranus15.9697
Neptune27.7643

Observations

747 total observations over interval: 2001 12 17.48717 – 2024 03 18.512909
These data are available for download (format description).

Date (UT) J2000 RA J2000 Dec Magn Location Ref
2001 12 17.48717 08 42 36.48 +18 24 14.1 19.6   644 – Palomar Mountain/NEAT MPS 47239
2001 12 17.49773 08 42 36.19 +18 24 13.2 19.5   644 – Palomar Mountain/NEAT MPS 47239
2001 12 17.50818 08 42 35.93 +18 24 12.2 19.7   644 – Palomar Mountain/NEAT MPS 47239
2001 12 18.40602 08 42 12.64 +18 22 45.2 20.0 V 291 – LPL/Spacewatch II MPS 47239
2001 12 18.44103 08 42 11.55 +18 22 42.1 21.1 V 291 – LPL/Spacewatch II MPS 47239
2001 12 18.45834 08 42 11.03 +18 22 39.0 19.6   704 – Lincoln Laboratory ETS, New Mexico MPS 47239
2001 12 18.46506 08 42 10.86 +18 22 39.9 20.8 V 291 – LPL/Spacewatch II MPS 47239
2001 12 18.47481 08 42 10.56 +18 22 38.1 19.5   704 – Lincoln Laboratory ETS, New Mexico MPS 47239
2001 12 18.49179 08 42 10.04 +18 22 36.2 19.8   704 – Lincoln Laboratory ETS, New Mexico MPS 47239
2001 12 18.50702 08 42 09.55 +18 22 34.7 19.7   704 – Lincoln Laboratory ETS, New Mexico MPS 47239
2001 12 18.52245 08 42 09.12 +18 22 33.3 19.5   704 – Lincoln Laboratory ETS, New Mexico MPS 47239
2001 12 24.46137 08 38 50.00 +18 14 58.7 20.3 V 691 – Steward Observatory, Kitt Peak-Spacewatch MPS 47239
2001 12 24.48387 08 38 49.09 +18 14 57.3 20.4 V 691 – Steward Observatory, Kitt Peak-Spacewatch MPS 47239
2001 12 24.50633 08 38 48.14 +18 14 55.7 19.9 V 691 – Steward Observatory, Kitt Peak-Spacewatch MPS 47239
2002 01 05.29014 08 28 57.46 +18 08 22.1 20.5   644 – Palomar Mountain/NEAT MPS 47239
2002 01 05.37986 08 28 51.86 +18 08 21.5 19.3   644 – Palomar Mountain/NEAT MPS 47239
2002 01 05.44435 08 28 47.86 +18 08 20.3 20.8   644 – Palomar Mountain/NEAT MPS 47239
2002 01 13.30718 08 20 23.91 +18 08 23.0 18.8   704 – Lincoln Laboratory ETS, New Mexico MPS 47239
2002 01 13.32235 08 20 22.86 +18 08 23.2 19.3   704 – Lincoln Laboratory ETS, New Mexico MPS 47239
2002 01 13.33751 08 20 21.81 +18 08 22.3 19.2   704 – Lincoln Laboratory ETS, New Mexico MPS 47239
2002 01 13.35267 08 20 20.77 +18 08 23.4 19.1   704 – Lincoln Laboratory ETS, New Mexico MPS 47239
2002 01 13.36784 08 20 19.70 +18 08 23.1 19.6   704 – Lincoln Laboratory ETS, New Mexico MPS 47239
2002 01 15.32050 08 18 06.51 +18 08 42.2 18.6   704 – Lincoln Laboratory ETS, New Mexico MPS 47239
2002 01 15.33571 08 18 05.45 +18 08 42.5 19.0   704 – Lincoln Laboratory ETS, New Mexico MPS 47239
2002 01 15.35104 08 18 04.37 +18 08 42.8 19.2   704 – Lincoln Laboratory ETS, New Mexico MPS 47239
2002 01 21.36124 08 11 06.83 +18 09 55.7 19.1 V 291 – LPL/Spacewatch II MPS 47239
2002 01 21.38276 08 11 05.29 +18 09 55.9 19.1 V 291 – LPL/Spacewatch II MPS 47239
2002 01 21.40433 08 11 03.77 +18 09 56.1 19.0 V 291 – LPL/Spacewatch II MPS 47239
2002 01 22.23103 08 10 06.72 +18 10 07.0 18.9   704 – Lincoln Laboratory ETS, New Mexico MPS 47239
2002 01 22.24817 08 10 05.45 +18 10 06.9 19.2   704 – Lincoln Laboratory ETS, New Mexico MPS 47239
2002 01 22.27799 08 10 03.34 +18 10 07.1 19.2   704 – Lincoln Laboratory ETS, New Mexico MPS 47239
2002 01 22.29291 08 10 02.28 +18 10 07.7 19.1   704 – Lincoln Laboratory ETS, New Mexico MPS 47239
2002 02 06.17869 07 54 08.58 +18 11 12.6 19.5   644 – Palomar Mountain/NEAT MPS 49852
2002 02 06.19956 07 54 07.35 +18 11 12.5 19.5   644 – Palomar Mountain/NEAT MPS 49852
2002 02 06.22053 07 54 06.17 +18 11 12.4 19.7   644 – Palomar Mountain/NEAT MPS 49852
2002 02 16.12282 07 46 16.71 +18 08 15.8 20.1   644 – Palomar Mountain/NEAT MPS 55257
2002 02 16.14384 07 46 15.85 +18 08 15.4 19.8   644 – Palomar Mountain/NEAT MPS 55257
2002 02 16.16645 07 46 14.96 +18 08 14.8 19.8   644 – Palomar Mountain/NEAT MPS 55257
2002 03 05.11580 07 40 19.39 +17 54 40.0 20.2   644 – Palomar Mountain/NEAT MPS 55257
2002 03 05.13687 07 40 19.27 +17 54 38.4 20.0   644 – Palomar Mountain/NEAT MPS 55257
2002 03 05.15885 07 40 19.16 +17 54 36.8 20.2   644 – Palomar Mountain/NEAT MPS 55257
2004 09 10.29310 01 37 38.45 +21 35 24.9 18.6   704 – Lincoln Laboratory ETS, New Mexico MPS 114286
2004 09 10.30432 01 37 38.27 +21 35 27.5 18.9   704 – Lincoln Laboratory ETS, New Mexico MPS 114286
2004 09 10.31555 01 37 38.06 +21 35 29.9 19.6   704 – Lincoln Laboratory ETS, New Mexico MPS 114286
2004 09 10.32677 01 37 37.85 +21 35 31.9 19.5   704 – Lincoln Laboratory ETS, New Mexico MPS 114286
2004 09 10.33801 01 37 37.63 +21 35 34.4 19.0   704 – Lincoln Laboratory ETS, New Mexico MPS 114286
2004 09 13.29707 01 36 41.22 +21 44 27.6 19.0   704 – Lincoln Laboratory ETS, New Mexico MPS 114286
2004 09 13.30885 01 36 40.91 +21 44 28.9 18.9   704 – Lincoln Laboratory ETS, New Mexico MPS 114286
2004 09 13.32062 01 36 40.61 +21 44 31.6 19.0   704 – Lincoln Laboratory ETS, New Mexico MPS 114286
2004 09 13.33248 01 36 40.29 +21 44 33.5 19.4   704 – Lincoln Laboratory ETS, New Mexico MPS 114286
2004 09 13.34432 01 36 40.05 +21 44 36.0 19.2   704 – Lincoln Laboratory ETS, New Mexico MPS 114286
2004 09 18.30627 01 34 26.53 +21 54 36.6 18.8   704 – Lincoln Laboratory ETS, New Mexico MPS 114286
2004 09 18.31816 01 34 26.10 +21 54 37.7 19.1   704 – Lincoln Laboratory ETS, New Mexico MPS 114286
2004 09 18.33005 01 34 25.67 +21 54 38.7 19.3   704 – Lincoln Laboratory ETS, New Mexico MPS 114286
2004 09 18.34194 01 34 25.25 +21 54 39.3 19.2   704 – Lincoln Laboratory ETS, New Mexico MPS 114286
2004 09 18.35392 01 34 24.88 +21 54 40.6 19.2   704 – Lincoln Laboratory ETS, New Mexico MPS 114286
2004 09 22.32612 01 32 04.95 +21 58 02.4 18.5 R 699 – Lowell Observatory-LONEOS MPS 119821
2004 09 22.34238 01 32 04.27 +21 58 02.9   699 – Lowell Observatory-LONEOS MPS 119821
2004 09 22.35864 01 32 03.67 +21 58 03.2   699 – Lowell Observatory-LONEOS MPS 119821
2004 09 22.37487 01 32 02.99 +21 58 03.4   699 – Lowell Observatory-LONEOS MPS 119821
2004 09 23.29070 01 31 26.93 +21 58 13.9 18.9   704 – Lincoln Laboratory ETS, New Mexico MPS 114286
2004 09 23.30253 01 31 26.46 +21 58 13.1 19.5   704 – Lincoln Laboratory ETS, New Mexico MPS 114286
2004 09 23.31436 01 31 25.95 +21 58 13.4 19.5   704 – Lincoln Laboratory ETS, New Mexico MPS 114286
2004 09 23.32623 01 31 25.43 +21 58 13.7 19.9   704 – Lincoln Laboratory ETS, New Mexico MPS 114286
2004 09 23.33807 01 31 24.90 +21 58 14.2 19.8   704 – Lincoln Laboratory ETS, New Mexico MPS 114286
2004 10 10.25432 01 17 01.32 +21 19 49.7 18.3   704 – Lincoln Laboratory ETS, New Mexico MPS 116549
2004 10 10.26534 01 17 00.66 +21 19 46.5 18.3   704 – Lincoln Laboratory ETS, New Mexico MPS 116549
2004 10 10.27635 01 16 59.96 +21 19 43.9 18.2   704 – Lincoln Laboratory ETS, New Mexico MPS 116549
2004 10 10.28738 01 16 59.30 +21 19 41.4 18.1   704 – Lincoln Laboratory ETS, New Mexico MPS 116549
2004 10 10.29844 01 16 58.62 +21 19 37.4 18.1   704 – Lincoln Laboratory ETS, New Mexico MPS 116549
2004 10 15.25413 01 12 08.26 +20 54 23.2 18.0   704 – Lincoln Laboratory ETS, New Mexico MPS 117555
2004 10 15.26509 01 12 07.56 +20 54 19.6 18.3   704 – Lincoln Laboratory ETS, New Mexico MPS 117555
2004 10 15.27604 01 12 06.90 +20 54 15.8 18.4   704 – Lincoln Laboratory ETS, New Mexico MPS 117555
2004 10 15.28699 01 12 06.22 +20 54 12.0 18.6   704 – Lincoln Laboratory ETS, New Mexico MPS 117555
2004 10 15.29795 01 12 05.54 +20 54 08.2 18.3   704 – Lincoln Laboratory ETS, New Mexico MPS 117555
2004 11 04.25572 00 55 15.95 +18 36 02.5 17.7 R 703 – Catalina Sky Survey MPS 118355
2004 11 04.26616 00 55 15.51 +18 35 57.6 17.9 R 703 – Catalina Sky Survey MPS 118355
2004 11 04.27662 00 55 15.07 +18 35 53.2 17.5 R 703 – Catalina Sky Survey MPS 118355
2004 11 04.28706 00 55 14.68 +18 35 48.5 17.8 R 703 – Catalina Sky Survey MPS 118355
2004 11 05.21661 00 54 41.02 +18 28 55.3 17.9   644 – Palomar Mountain/NEAT MPS 119255
2004 11 05.24113 00 54 40.07 +18 28 44.3 18.0   644 – Palomar Mountain/NEAT MPS 119255
2004 11 05.26267 00 54 39.27 +18 28 34.5 18.1   644 – Palomar Mountain/NEAT MPS 119255
2004 11 10.14262 00 52 08.31 +17 53 08.1 18.3 R 699 – Lowell Observatory-LONEOS MPS 119821
2004 11 10.16291 00 52 07.68 +17 52 58.6   699 – Lowell Observatory-LONEOS MPS 119821
2004 11 10.18318 00 52 07.07 +17 52 50.3   699 – Lowell Observatory-LONEOS MPS 119821
2004 11 10.20348 00 52 06.53 +17 52 42.2   699 – Lowell Observatory-LONEOS MPS 119821
2004 11 10.37931 00 52 01.76 +17 51 27.8 20.0   608 – Haleakala-AMOS MPS 119255
